Погода в Стренчи

Латвия     57°37′39″N   25°41′06″E
темп.,
°C
ветер,
м/с
пор.,
м/с
влажн.,
%
обл.,
%
осадки,
мм/ч
давл.,
гПа
погр.,
м
5 марта, пт
пт523:00−2зсз498021 0.0 1010796
02:00−3зсз488655 0.1 1010672
05:00−3ссз5968100 0.4 10111155
08:00−4ссз485565 0.4 10121046
11:00−2ссз474123 0.0 10141845
14:00−1сз464459 0.1 10151528
17:00−2ссв3568100 0.4 1016794
20:00−4с276378 0.4 1018299
6 марта, сб
сб623:00−5сз24660 0.0 1020149
02:00−5зсз25710 0.0 1022197
05:00−6зсз25790 0.0 1022182
08:00−5зюз38760 0.0 1021358
11:00−1зюз595227 0.0 10201263
14:00+1зюз7135363 0.0 10161477
17:00+1зюз81750100 0.0 10121514
20:000зюз81860100 0.0 10081398
7 марта, вс
вс723:000зюз81594100 1.4 10031223
02:00−2сз61286100 4.9 10021137
05:00−5зсз5145844 0.1 10032152
08:00−4з5135539 0.1 10031535
11:00−2зсз8145643 0.1 10021924
14:000з8144671 0.3 9992208
17:00−2зсз61358100 0.4 9981817
20:00−4сз6136899 0.4 10011563
8 марта, пн
пн823:00−6ссз3106898 0.1 10051216
02:00−7ссз397554 0.1 1008709
05:00−8сз278429 0.0 1009473
08:00−8с477965 0.2 1012847
11:00−7ссз4667100 0.1 10141070
14:00−6с4760100 0.1 10161130
17:00−6с486089 0.0 10181058
20:00−9с397145 0.0 1021611
9 марта, вт
вт923:00−10ссз25790 0.0 1022149
02:00−10сз22810 0.0 102383
05:00−10зсз22820 0.0 102462
08:00−9зюз25740 0.0 1025188
11:00−3з36550 0.0 1025754
14:00−1з57490 0.0 10251127
17:00−2зюз485639 0.0 1024982
20:00−4зюз4126126 0.0 1025476